Location: Unspecified
(34.4950°S, 58.5160°W)
Time: 00:06:52
(UTC+00:00)

BlueWalker 3 - Pass Details

Date: 15 December 2025
Orbit: 451 x 463 km, 53.2° (Epoch: 15 January)

Event Time Altitude Azimuth Distance (km) Brightness Sun altitude
Rises 23:52:55 0° 311° (NW) 2,482 5.6 -9.4°
Maximum altitude 23:58:41 68° 224° (SW) 504 2.2 -10.4°
Drops below altitude 10° 00:02:20 10° 140° (SE) 1,624 4.5 -11.0°
Sets 00:04:30 0° 137° (SE) 2,503 5.4 -11.3°
